Le nostre stazioni meteo in Italia

Pubblicità
Il mio iltempo24.it
Uccle, Belgio (6447): Temperatura & dewpoint: 02.04.2020 01:00:00 - 08.04.2020 01:00:00 (CEST)Uccle, Belgio (6447): velocità del vento & gusts: 02.04.2020 01:00:00 - 08.04.2020 01:00:00 (CEST)Uccle, Belgio (6447): direzione del vento: 02.04.2020 01:00:00 - 08.04.2020 01:00:00 (CEST)Uccle, Belgio (6447): reduced air pressure: 02.04.2020 01:00:00 - 08.04.2020 01:00:00 (CEST)Uccle, Belgio (6447): ore di luce: 02.04.2020 01:00:00 - 08.04.2020 01:00:00 (CEST)Uccle, Belgio (6447): precipitazioni: 02.04.2020 01:00:00 - 08.04.2020 01:00:00 (CEST)
Data & Tempo tt [°C] td [°C] ff [km/h] ff [kn] fx [km/h] fx [kn] dd ppp [hPa] sd [min] rr [mm]
08.04.2020 01:00:00 14,2 7,5 13 7 24 13 E 1026,2 0 0,0
08.04.2020 00:00:00 15,2 7,9 14 8 22 12 E 1026,5 0 0,0
07.04.2020 23:00:00 15,2 8,0 12 6 21 11 E 1026,8 0 0,0
07.04.2020 22:00:00 15,5 7,7 10 6 17 9 E 1027,0 0 0,0
07.04.2020 21:00:00 16,5 7,4 9 5 17 9 E 1026,7 6 0,0
07.04.2020 20:00:00 18,8 7,4 11 6 19 11 ENE 1026,5 47 0,0
07.04.2020 19:00:00 20,0 7,5 10 5 23 12 ENE 1026,7 60 0,0
07.04.2020 18:00:00 20,6 7,4 9 5 21 12 E 1027,1 60 0,0
07.04.2020 17:00:00 20,7 7,7 13 7 26 14 ESE 1027,6 60 0,0
07.04.2020 16:00:00 20,0 7,4 13 7 26 14 NE 1027,9 60 0,0
07.04.2020 15:00:00 19,4 6,7 11 6 23 12 E 1028,7 60 0,0
07.04.2020 14:00:00 18,8 6,9 7 4 24 13 ENE 1029,3 60 0,0
07.04.2020 13:00:00 18,0 5,8 12 6 24 13 E 1030,1 60 0,0
07.04.2020 12:00:00 16,0 7,1 9 5 20 11 E 1030,6 60 0,0
07.04.2020 11:00:00 14,0 7,5 8 4 15 8 ENE 1030,6 59 0,0
07.04.2020 10:00:00 12,0 8,0 7 4 14 8 E 1030,6 50 0,0
07.04.2020 09:00:00 9,2 8,7 6 3 9 5 E 1030,3 54 0,0
07.04.2020 08:00:00 6,7 6,1 4 2 6 3 N 1030,0 15 0,0
07.04.2020 07:00:00 6,6 5,9 4 2 5 3 NO 1029,3 0 0,0
07.04.2020 06:00:00 7,4 6,6 4 2 8 4 ONO 1029,1 0 0,0
07.04.2020 05:00:00 7,9 7,0 8 4 10 5 SO 1028,4 0 0,0
07.04.2020 04:00:00 8,3 7,3 5 3 8 5 SSO 1028,1 0 0,0
07.04.2020 03:00:00 8,8 7,5 6 3 8 5 SO 1028,0 0 0,0
07.04.2020 02:00:00 9,3 7,5 4 2 8 4 SO 1027,5 0 0,0
07.04.2020 01:00:00 10,5 8,1 5 3 10 5 OSO 1026,9 0 0,0
07.04.2020 00:00:00 12,0 8,6 4 2 10 6 OSO 1026,3 0 0,0
06.04.2020 23:00:00 12,7 8,2 6 4 22 12 OSO 1025,8 0 0,0
06.04.2020 22:00:00 13,7 8,6 10 6 22 12 OSO 1025,1 0 0,0
06.04.2020 21:00:00 14,2 9,2 9 5 23 12 SO 1023,9 0 0,0
06.04.2020 20:00:00 14,4 9,2 7 4 28 15 SO 1023,1 0 0,0
06.04.2020 19:00:00 15,0 7,9 14 7 31 17 OSO 1022,3 0 0,0
06.04.2020 18:00:00 16,9 4,7 14 8 41 22 O 1021,3 16 0,0
06.04.2020 17:00:00 19,8 4,3 21 11 40 22 OSO 1020,3 59 0,0
06.04.2020 16:00:00 21,1 3,5 20 11 45 24 SO 1019,6 60 0,0
06.04.2020 15:00:00 20,9 3,1 19 11 43 23 S 1019,2 60 0,0
06.04.2020 14:00:00 20,2 2,4 18 10 36 19 S 1018,8 60 0,0
06.04.2020 13:00:00 19,8 2,3 14 8 29 15 SSO 1018,4 60 0,0
06.04.2020 12:00:00 18,2 1,3 17 9 35 19 S 1017,9 60 0,0
06.04.2020 11:00:00 16,7 1,5 18 10 31 17 S 1017,7 60 0,0
06.04.2020 10:00:00 14,7 2,1 18 10 31 17 S 1017,1 60 0,0
06.04.2020 09:00:00 12,6 1,5 18 10 31 17 S 1016,7 58 0,0
06.04.2020 08:00:00 11,5 0,8 18 10 32 18 SSE 1015,9 30 0,0
06.04.2020 07:00:00 11,7 0,7 20 11 33 18 SSE 1015,2 0 0,0
06.04.2020 06:00:00 12,3 0,7 21 12 34 19 SSE 1014,9 0 0,0
06.04.2020 05:00:00 12,8 0,6 23 12 35 19 SSE 1014,8 0 0,0
06.04.2020 04:00:00 13,2 0,4 23 12 35 19 SSE 1014,8 0 0,0
06.04.2020 03:00:00 13,7 0,0 23 12 35 19 SSE 1015,0 0 0,0
06.04.2020 02:00:00 14,5 0,1 22 12 37 20 SSE 1015,0 0 0,0
06.04.2020 01:00:00 14,9 0,3 22 12 32 17 SSE 1015,0 0 0,0
06.04.2020 00:00:00 15,2 0,7 20 11 29 16 SE 1015,0 0 0,0
05.04.2020 23:00:00 16,1 1,2 16 9 25 13 SE 1015,0 0 0,0
05.04.2020 22:00:00 17,4 1,5 19 10 27 14 SE 1015,2 0 0,0
05.04.2020 21:00:00 18,1 1,2 13 7 25 13 SE 1015,2 10 0,0
05.04.2020 20:00:00 20,1 0,3 14 8 30 16 S 1014,9 60 0,0
05.04.2020 19:00:00 21,6 0,0 14 8 35 19 S 1014,9 60 0,0
05.04.2020 18:00:00 22,1 -1,4 21 11 37 20 S 1015,1 60 0,0
05.04.2020 17:00:00 22,1 1,3 15 8 34 18 SE 1015,6 60 0,0
05.04.2020 16:00:00 21,3 0,6 18 10 37 20 SSE 1016,2 60 0,0
05.04.2020 15:00:00 21,0 0,8 17 9 36 19 SSE 1017,0 60 0,0
05.04.2020 14:00:00 19,9 1,2 18 10 35 19 SSE 1017,7 60 0,0
05.04.2020 13:00:00 18,7 1,1 22 12 41 22 SSE 1018,6 60 0,0
05.04.2020 12:00:00 17,5 0,8 21 12 37 20 SE 1019,3 60 0,0
05.04.2020 11:00:00 14,9 1,2 19 10 31 17 SE 1019,7 60 0,0
05.04.2020 10:00:00 11,9 0,7 20 11 32 17 SE 1020,0 60 0,0
05.04.2020 09:00:00 9,2 0,2 21 11 31 17 SE 1020,4 55 0,0
05.04.2020 08:00:00 7,2 -0,4 14 8 28 15 ESE 1020,3 28 0,0
05.04.2020 07:00:00 6,7 -0,9 15 8 24 13 ESE 1020,1 0 0,0
05.04.2020 06:00:00 7,5 -1,0 16 8 23 12 ESE 1020,3 0 0,0
05.04.2020 05:00:00 7,7 -1,0 16 8 23 13 ESE 1020,6 0 0,0
05.04.2020 04:00:00 8,0 -1,0 14 8 21 11 ESE 1020,9 0 0,0
05.04.2020 03:00:00 8,3 -0,9 14 7 22 12 ESE 1021,1 0 0,0
05.04.2020 02:00:00 7,1 -0,6 14 8 20 11 ESE 1021,8 0 0,0
05.04.2020 01:00:00 7,2 -1,1 9 5 20 11 E 1021,8 0 0,0
05.04.2020 00:00:00 8,1 -0,8 12 7 23 12 E 1021,9 0 0,0
04.04.2020 23:00:00 9,3 0,2 13 7 23 12 E 1021,7 0 0,0
04.04.2020 22:00:00 10,0 0,7 11 6 21 11 E 1022,0 0 0,0
04.04.2020 21:00:00 11,2 0,7 8 5 16 9 E 1021,7 7 0,0
04.04.2020 20:00:00 13,6 0,5 7 4 19 10 E 1021,2 60 0,0
04.04.2020 19:00:00 15,2 0,5 11 6 22 12 ESE 1021,1 60 0,0
04.04.2020 18:00:00 14,9 0,1 10 5 17 9 SSE 1021,1 39 0,0
04.04.2020 17:00:00 15,5 0,8 14 7 25 14 ESE 1021,3 59 0,0
04.04.2020 16:00:00 14,7 0,9 10 6 26 14 S 1021,8 42 0,0
04.04.2020 15:00:00 14,2 0,8 8 4 25 14 SSE 1022,3 45 0,0
04.04.2020 14:00:00 14,2 1,1 11 6 24 13 S 1022,7 58 0,0
04.04.2020 13:00:00 13,4 1,2 11 6 24 13 S 1023,0 60 0,0
04.04.2020 12:00:00 12,6 0,7 9 5 23 13 ESE 1023,4 59 0,0
04.04.2020 11:00:00 11,2 0,1 15 8 27 14 SE 1023,3 60 0,0
04.04.2020 10:00:00 9,5 -1,1 14 7 22 12 SE 1023,0 29 0,0
04.04.2020 09:00:00 7,5 -2,0 10 5 16 9 SE 1022,9 1 0,0
04.04.2020 08:00:00 6,7 -2,5 11 6 16 9 SE 1022,3 0 0,0
04.04.2020 07:00:00 6,4 -2,4 9 5 16 9 SE 1022,1 0 0,0
04.04.2020 06:00:00 6,4 -2,5 13 7 18 10 SSE 1021,7 0 0,0
04.04.2020 05:00:00 6,9 -2,5 10 5 15 8 SSE 1021,7 0 0,0
04.04.2020 04:00:00 6,8 -2,5 8 4 12 7 SE 1021,7 0 0,0
04.04.2020 03:00:00 6,6 -2,5 6 4 12 7 ESE 1021,5 0 0,0
04.04.2020 02:00:00 6,9 -2,9 7 4 12 7 SE 1021,5 0 0,0
04.04.2020 01:00:00 6,8 -2,5 7 4 12 6 ESE 1021,3 0 0,0
04.04.2020 00:00:00 7,2 -2,8 5 3 12 7 E 1021,0 0 0,0
03.04.2020 23:00:00 7,6 -2,7 7 4 14 7 E 1020,8 0 0,0
03.04.2020 22:00:00 8,0 -3,1 5 3 10 5 ENE 1020,5 0 0,0
03.04.2020 21:00:00 8,6 -3,2 7 4 19 11 NNO 1019,9 0 0,0
03.04.2020 20:00:00 9,0 -3,0 7 4 21 11 NNO 1019,5 5 0,0
03.04.2020 19:00:00 9,4 -2,5 14 7 27 15 NNO 1019,1 34 0,0
03.04.2020 18:00:00 10,3 -1,7 14 8 27 14 NNO 1018,6 24 0,0
03.04.2020 17:00:00 10,0 -0,6 14 8 31 17 ONO 1018,5 7 0,0
03.04.2020 16:00:00 10,1 -0,5 16 9 32 17 NNO 1018,3 2 0,0
03.04.2020 15:00:00 10,2 -1,3 20 11 36 20 NO 1018,0 9 0,0
03.04.2020 14:00:00 10,3 -1,4 14 8 33 18 NO 1017,7 11 0,0
03.04.2020 13:00:00 9,5 -0,6 16 9 35 19 NO 1017,5 20 0,0
03.04.2020 12:00:00 9,0 -0,5 20 11 33 18 O 1017,3 31 0,0
03.04.2020 11:00:00 8,4 2,9 16 8 25 13 ONO 1016,8 56 0,0
03.04.2020 10:00:00 7,5 3,2 13 7 20 11 ONO 1016,1 57 0,0
03.04.2020 09:00:00 6,1 3,2 11 6 19 10 O 1015,7 56 0,0
03.04.2020 08:00:00 4,4 2,7 7 4 - - OSO 1015,0 - -
03.04.2020 07:00:00 4,6 3,0 7 4 14 8 OSO 1014,3 - 0,0
03.04.2020 06:00:00 5,6 3,9 7 4 14 8 OSO 1013,9 - 0,0
03.04.2020 05:00:00 5,6 4,1 7 4 - - OSO 1013,6 - 0,0
03.04.2020 04:00:00 5,5 3,7 7 4 14 8 OSO 1013,4 - 0,0
03.04.2020 03:00:00 6,5 4,2 7 4 18 10 OSO 1013,1 - 0,0
03.04.2020 02:00:00 6,4 3,7 7 4 - - OSO 1013,1 - -
03.04.2020 01:00:00 6,8 3,4 11 6 22 12 SO 1013,1 - 0,0
03.04.2020 00:00:00 7,6 2,8 7 4 25 14 OSO 1013,2 - 0,0
02.04.2020 23:00:00 8,2 2,2 14 8 - - OSO 1013,3 - 0,0
02.04.2020 22:00:00 7,7 1,4 7 4 14 8 OSO 1013,2 - 0,0
02.04.2020 21:00:00 8,1 0,9 7 4 22 12 OSO 1013,1 - 0,0
02.04.2020 20:00:00 9,3 1,1 14 8 - - O 1013,0 - -
02.04.2020 19:00:00 9,5 0,6 7 4 18 10 SO 1012,9 - 0,0
02.04.2020 18:00:00 9,4 0,4 11 6 29 16 O 1013,1 - 0,0
02.04.2020 17:00:00 9,2 0,2 14 8 - - O 1013,4 - 0,0
02.04.2020 16:00:00 9,3 0,4 11 6 25 14 O 1013,8 - 0,0
02.04.2020 15:00:00 8,9 0,1 11 6 22 12 O 1014,2 - 0,0
02.04.2020 14:00:00 8,6 -0,6 11 6 - - O 1014,4 - -
02.04.2020 13:00:00 8,2 0,3 11 6 22 12 ONO 1015,1 - 0,0
02.04.2020 12:00:00 7,6 0,6 7 4 18 10 O 1015,6 - 0,0
02.04.2020 11:00:00 6,6 -0,2 7 4 - - O 1015,8 - 0,0
02.04.2020 10:00:00 4,3 1,1 7 4 11 6 SO 1015,9 - 0,0
02.04.2020 09:00:00 1,2 0,3 4 2 7 4 OSO 1016,3 - 0,0
02.04.2020 08:00:00 -0,7 -1,6 7 4 - - SO 1016,4 - -
02.04.2020 07:00:00 -1,0 -2,0 7 4 7 4 OSO 1016,2 - 0,0
02.04.2020 06:00:00 -0,9 -2,1 4 2 7 4 SO 1016,5 - 0,0
02.04.2020 05:00:00 -0,4 -1,7 4 2 - - OSO 1017,0 - 0,0
02.04.2020 04:00:00 0,2 -1,6 4 2 7 4 O 1017,6 - 0,0
02.04.2020 03:00:00 1,1 -1,3 4 2 7 4 OSO 1017,6 - 0,0
02.04.2020 02:00:00 2,0 -0,9 4 2 - - NO 1017,9 - -
02.04.2020 01:00:00 3,6 -0,8 7 4 18 10 N 1018,1 - 0,0

tt = Temperatura
td = dewpoint
ff = velocità del vento
fx = gusts
dd = direzione del vento
ppp = reduced air pressure
sd = ore di luce
rr = precipitazioni

Stazioni seguenti

WeatherPro
AMSI
MeteoEarth